Location: Carri�res
(48.9069°N, 2.1792°E)
Time: 11:48:23
(UTC+00:00)

deb Kosmos- 1898 - Pass Details

Date: 28 July 2021
Orbit: 731 x 754 km, 74.0° (Epoch: 18 September)

Event Time Altitude Azimuth Distance (km) Brightness Sun altitude
Exits shadow 03:28:56 - 221° (SW) 2,329 ? -7.6°
Reaches altitude 10° 03:29:09 10° 222° (SW) 2,248 ? -7.5°
Maximum altitude 03:34:07 52° 298° (WNW) 931 ? -6.9°
Drops below altitude 10° 03:39:09 10° 15° (NNE) 2,278 ? -6.3°
Sets 03:41:36 0° 21° (NNE) 3,210 ? -5.9°
